Afton, WI

4:58 PM CDT on August 23, 2016 (GMT -0500)
Rock County

Weather History for KJVL - November, 2012

Change the Weather History Date:

Wednesday, November 28, 2012

  Actual Average Record
Temperature  
Mean Temperature 32 °F -  
Max Temperature 44 °F 40 °F 60 °F (2005)
Min Temperature 21 °F 25 °F 14 °F (2014)
Degree Days  
Heating Degree Days 32    
Moisture  
Dew Point 18 °F    
Average Humidity 58    
Maximum Humidity 74    
Minimum Humidity 34    
Precipitation  
Precipitation 0.00 in - - ()
Sea Level Pressure  
Sea Level Pressure 30.26 in    
Wind  
Wind Speed 4 mph (SW)    
Max Wind Speed 10 mph    
Max Gust Speed -    
Visibility 10 miles    
Events      
Averages and records for this station are not official NWS values.
T = Trace of Precipitation, MM = Missing Value Source: NWS Daily Summary

Daily Weather History Graph

Daily Weather History Graph

Search for Another Location

Airport or City:

Trip Planner

Search our weather history database for the weather conditions in past years. The results will help you decide how hot, cold, wet, or windy it might be!

Date:

Astronomy

Nov. 28, 2012 Rise Set
Actual Time 7:03 AM CST 4:24 PM CST
Civil Twilight 6:32 AM CST 4:56 PM CST
Nautical Twilight 5:57 AM CST 5:30 PM CST
Astronomical Twilight 5:23 AM CST 6:04 PM CST
Moon 4:39 PM CST (11/28) 7:01 AM CST (11/28)
Length of Visible Light 10h 23m
Length of Day
9h 20m
Full, 100% of the Moon is Illuminated
Nov 28
Full
Dec 6
Last Quarter
Dec 13
New
Dec 19
First Quarter
Dec 28
Full

Hourly Weather History & Observations

Time (CST) Temp. Windchill Dew Point Humidity Pressure Visibility Wind Dir Wind Speed Gust Speed Precip Events Conditions
12:15 AM 32.0 °F 27.5 °F 15.8 °F 51% 30.21 in 10.0 mi WSW 4.6 mph - N/A   Overcast
12:35 AM 32.0 °F 28.7 °F 17.6 °F 55% 30.21 in 10.0 mi WSW 3.5 mph - N/A   Overcast
12:55 AM 32.0 °F 28.7 °F 17.6 °F 55% 30.21 in 10.0 mi WSW 3.5 mph - N/A   Overcast
1:15 AM 32.0 °F 28.7 °F 17.6 °F 55% 30.21 in 10.0 mi WSW 3.5 mph - N/A   Overcast
1:35 AM 30.2 °F 26.7 °F 15.8 °F 55% 30.22 in 10.0 mi West 3.5 mph - N/A   Scattered Clouds
1:55 AM 30.2 °F 25.4 °F 14.0 °F 51% 30.22 in 10.0 mi WSW 4.6 mph - N/A   Clear
2:15 AM 28.4 °F - 14.0 °F 55% 30.23 in 10.0 mi Calm Calm - N/A   Clear
2:35 AM 28.4 °F 22.2 °F 14.0 °F 55% 30.24 in 10.0 mi SW 5.8 mph - N/A   Clear
2:55 AM 28.4 °F 23.3 °F 14.0 °F 55% 30.24 in 10.0 mi SW 4.6 mph - N/A   Clear
3:15 AM 26.6 °F 21.2 °F 14.0 °F 59% 30.24 in 10.0 mi WSW 4.6 mph - N/A   Clear
3:35 AM 26.6 °F - 14.0 °F 59% 30.24 in 10.0 mi Calm Calm - N/A   Clear
3:55 AM 26.6 °F - 15.8 °F 64% 30.24 in 10.0 mi Calm Calm - N/A   Clear
4:15 AM 28.4 °F - 15.8 °F 59% 30.25 in 10.0 mi Calm Calm - N/A   Clear
4:35 AM 24.8 °F - 14.0 °F 64% 30.26 in 10.0 mi Calm Calm - N/A   Clear
5:45 AM 26.6 °F - 15.8 °F 64% 30.28 in 10.0 mi Calm Calm - N/A   Clear
6:45 AM 21.2 °F - 14.0 °F 74% 30.30 in 10.0 mi Calm Calm - N/A   Clear
7:45 AM 21.2 °F - 14.0 °F 74% 30.33 in 10.0 mi Calm Calm - N/A   Clear
8:45 AM 28.4 °F - 19.4 °F 69% 30.34 in 10.0 mi Calm Calm - N/A   Clear
9:45 AM 33.8 °F 28.6 °F 19.4 °F 56% 30.35 in 10.0 mi West 5.8 mph - N/A   Clear
10:45 AM 35.6 °F 30.7 °F 21.2 °F 56% 30.35 in 10.0 mi West 5.8 mph - N/A   Clear
11:45 AM 39.2 °F 34.2 °F 19.4 °F 45% 30.33 in 10.0 mi West 6.9 mph - N/A   Clear
12:45 PM 41.0 °F 35.2 °F 19.4 °F 42% 30.32 in 10.0 mi West 9.2 mph - N/A   Clear
2:45 PM 44.6 °F 39.2 °F 17.6 °F 34% 30.28 in 10.0 mi WSW 10.4 mph - N/A   Clear
3:45 PM 42.8 °F 37.5 °F 17.6 °F 36% 30.28 in 10.0 mi SW 9.2 mph - N/A   Clear
5:45 PM 33.8 °F 26.4 °F 17.6 °F 52% 30.27 in 10.0 mi SW 9.2 mph - N/A   Clear
6:45 PM 33.8 °F 27.0 °F 19.4 °F 56% 30.27 in 10.0 mi SSW 8.1 mph - N/A   Clear
7:45 PM 33.8 °F 27.7 °F 19.4 °F 56% 30.25 in 10.0 mi South 6.9 mph - N/A   Clear
8:15 PM 33.8 °F 30.8 °F 19.4 °F 56% 30.25 in 10.0 mi South 3.5 mph - N/A   Clear
8:35 PM 32.0 °F 28.7 °F 19.4 °F 60% 30.25 in 10.0 mi South 3.5 mph - N/A   Clear
8:45 PM 32.0 °F 25.6 °F 19.4 °F 60% 30.26 in 10.0 mi South 6.9 mph - N/A   Clear
8:55 PM 32.0 °F 28.7 °F 21.2 °F 64% 30.25 in 10.0 mi South 3.5 mph - N/A   Clear
9:15 PM 32.0 °F 27.5 °F 21.2 °F 64% 30.24 in 10.0 mi SSE 4.6 mph - N/A   Clear
9:35 PM 32.0 °F 27.5 °F 21.2 °F 64% 30.23 in 10.0 mi South 4.6 mph - N/A   Clear
9:55 PM 33.8 °F 30.8 °F 21.2 °F 60% 30.23 in 10.0 mi South 3.5 mph - N/A   Clear
10:15 PM 32.0 °F 27.5 °F 21.2 °F 64% 30.23 in 10.0 mi SSW 4.6 mph - N/A   Clear
10:35 PM 33.8 °F 27.7 °F 21.2 °F 60% 30.23 in 10.0 mi SSW 6.9 mph - N/A   Clear
10:55 PM 33.8 °F 28.6 °F 21.2 °F 60% 30.23 in 10.0 mi SSW 5.8 mph - N/A   Clear
11:15 PM 32.0 °F 26.4 °F 21.2 °F 64% 30.23 in 10.0 mi SSW 5.8 mph - N/A   Clear
11:35 PM 32.0 °F 26.4 °F 21.2 °F 64% 30.22 in 10.0 mi SSW 5.8 mph - N/A   Clear
11:55 PM 33.8 °F 27.0 °F 21.2 °F 60% 30.22 in 10.0 mi SSW 8.1 mph - N/A   Clear